User: anonymous   Login
Location: Caltech
(34.1382°N, 118.1253°W)
Time: 22:08:40
(UTC-07:00)
Language:

Oscar 11 - Orbit

View from above orbital plane
View from above orbital plane
View from above satellite
View from above satellite

Ground track
Ground track

The orbit data is extracted from the following two-line orbital elements,

1 14781U 84021B   15143.73395124  .00000543  00000-0  74296-4 0  9998
2 14781 097.8037 201.4158 0009502 143.5821 216.6041 14.82381825678405
Epoch (UTC): 23 May 2015 17:36:53
Eccentricity: 0.0009502
inclination: 97.8037°
perigee height: 615 km
apogee height: 628 km
right ascension of ascending node: 201.4158°
argument of perigee: 143.5821°
revolutions per day: 14.82381825
mean anomaly at epoch: 216.6041°
orbit number at epoch: 67840

The dashed part of the orbit path shows where the satellite is in the earth's shadow,  

DLR